Content
SEND FEEDBACK

Daily
Averages
Monthly
Summary
United States of America

RAPID CITY, SOUTH DAKOTA


Home > North America > United States > South Dakota
Elevation: 3162 feet     Latitude: 44 03N     Longitude: 103 04W

WEATHER
 
SELECT A DAY
Number of Records: 202,741;   Date Range: 1/1/95 - 9/29/14
 
SHARE

PRINT THIS DATA

[ ← Previous Day ]
WEATHER ALMANAC - JULY 11, 2014
[ Next Day → ]
[ °C ]   °F
Weather ElementAverageHighLow
Temperature72 °F86 °F (4:52 pm)63 °F (3:52 am)
Dewpoint62.8 °F66.9 °F (1:52 pm)57.9 °F (4:52 pm)
Humidity74 %93 % (3:32 am)48 % (2:52 pm)
Barometer30.01 in30.14 in (9:15 pm)29.83 in (2:52 am)
Wind Speed9.4 mph21.9 mph (1:52 pm)
Wind Gust33.4 mph (10:52 am)
Weather ElementAverage
Visibility8.5 mi
Wind DirectionSSW (187.6 °)

Weather ElementTotal
Precipitation1.94 in
Cooling Degree Days9.5 (Base 65)
Growing Degree Days24.5 (Base 50)
Averaged from 38 records on July 11, 2014
WEATHER CONDITIONS BREAKOUT
WIND DIRECTION BREAKOUT
WEATHER BY HOUR - JULY 11, 2014
[ °C ]   °F
Local TimeTemperatureDewpointHumidityBarometerVisibilityWind DirectionWind SpeedGust SpeedPrecipitationEventsConditions
12:52 AM69.1 °F61.0 °F75 %29.83 in10.0 miSE (140°)4.6 mphClear
1:52 AM66.0 °F62.1 °F87 %29.85 in10.0 miSE (130°)4.6 mphClear
2:52 AM66.9 °F62.1 °F84 %29.85 in10.0 miCalmClear
3:52 AM64.9 °F62.1 °F90 %29.87 in10.0 miESE (120°)6.9 mphClear
4:52 AM63.0 °F60.1 °F90 %29.86 in10.0 miNNW (330°)4.6 mphClear
5:52 AM66.0 °F59.0 °F78 %29.88 in10.0 miNorth (360°)5.8 mphClear
6:52 AM71.1 °F63.0 °F75 %29.89 in10.0 miNW (310°)5.8 mphClear
7:52 AM75.9 °F62.1 °F62 %29.90 in10.0 miNNW (330°)4.6 mphClear
8:52 AM79.0 °F62.1 °F56 %29.91 in10.0 miNorth (360°)8.1 mphClear
9:52 AM82.9 °F63.0 °F51 %29.92 in10.0 miNNE (20°)9.2 mphClear
10:52 AM82.9 °F63.0 °F51 %29.95 in10.0 miNorth (360°)12.7 mph19.6 mphClear
11:52 AM84.9 °F64.9 °F51 %29.96 in10.0 miNorth (360°)13.8 mphClear
12:52 PM86.0 °F64.0 °F48 %29.96 in10.0 miNorth (360°)9.2 mphClear
1:52 PM84.2 °F66.2 °F55 %30.05 in10.0 miNNE (20°)16.1 mphScattered Clouds
2:35 PM80.1 °F66.0 °F62 %30.05 in10.0 miNE (40°)12.7 mphThunderstormClear
2:50 PM80.6 °F66.2 °F61 %30.06 in10.0 miNNE (20°)9.2 mphThunderstormThunderstorm
2:52 PM80.1 °F66.0 °F62 %29.99 in10.0 miNNE (20°)9.2 mphThunderstormThunderstorm
3:05 PM79.0 °F66.0 °F64 %30.06 in10.0 miNNE (30°)8.1 mphThunderstormClear
3:25 PM79.0 °F66.9 °F66 %30.05 in10.0 miVariable3.5 mphThunderstormThunderstorm
3:40 PM73.0 °F63.0 °F71 %30.06 in10.0 miWSW (250°)13.8 mph0.00 inRain-ThunderstormLight Rain
3:52 PM73.9 °F64.0 °F71 %29.98 in10.0 miCalm0.00 inRainLight Rain
4:42 PM73.0 °F66.0 °F79 %30.07 in2.5 miSouth (170°)13.8 mph24.2 mph0.01 inRain-ThunderstormLight Thunderstorms and Rain
4:45 PM73.0 °F64.9 °F76 %30.07 in1.5 miSSE (150°)21.9 mph32.2 mph0.08 inRain-ThunderstormHeavy Thunderstorms and Rain
4:52 PM70.0 °F57.9 °F65 %30.04 in1.2 miSouth (170°)11.5 mph33.4 mph0.18 inRain-ThunderstormHeavy Thunderstorms and Rain
4:55 PM69.1 °F59.0 °F70 %30.09 in2.0 miSouth (180°)19.6 mph33.4 mph0.00 inRain-ThunderstormThunderstorms and Rain
5:09 PM66.0 °F63.0 °F90 %30.09 in1.8 miSSW (210°)15.0 mph0.10 inRain-ThunderstormHeavy Thunderstorms and Rain
5:34 PM66.0 °F64.0 °F93 %30.12 in1.5 miSW (230°)10.4 mph0.47 inRain-ThunderstormHeavy Rain
5:43 PM66.0 °F63.0 °F90 %30.13 in3.0 miSSW (210°)10.4 mph0.54 inRain-ThunderstormLight Rain
5:52 PM66.0 °F63.0 °F90 %30.09 in10.0 miWSW (240°)4.6 mph0.54 inRain-ThunderstormLight Rain
5:59 PM66.0 °F63.0 °F90 %30.14 in10.0 miSE (130°)9.2 mph0.00 inThunderstormThunderstorm
6:11 PM66.0 °F64.0 °F93 %30.11 in10.0 miSouth (170°)10.4 mph0.00 inRainLight Rain
6:40 PM66.0 °F63.0 °F90 %30.08 in10.0 miWSW (240°)10.4 mph0.01 inMostly Cloudy
6:52 PM66.0 °F63.0 °F90 %30.01 in10.0 miWSW (240°)11.5 mph0.01 inPartly Cloudy
7:52 PM66.9 °F61.0 °F81 %30.04 in10.0 miWSW (240°)9.2 mphClear
8:52 PM66.9 °F61.0 °F81 %30.06 in10.0 miWest (270°)6.9 mphMostly Cloudy
9:52 PM66.9 °F59.0 °F76 %30.04 in10.0 miSouth (190°)11.5 mphMostly Cloudy
10:52 PM66.0 °F59.0 °F78 %30.06 in10.0 miNW (320°)6.9 mphMostly Cloudy
11:52 PM68.0 °F57.9 °F70 %30.04 in8.0 miSSW (210°)11.5 mph0.00 inClear
Hourly data recorded from KRAP, located miles away from Rapid City, South Dakota







STORIES FROM OUR PARTNERS